QPF
0.00 0.00 0.00 0.00 0.00 0.00 0.00 0.00 0.00 0.00 0.00 0.00 0.00 0.00 0.00 0.00 0.00 0.00 0.00 0.00 0.00 0.00 0.00 0.00 0.00 0.00 0.00 0.00 0.00 0.00 0.00 0.00 0.00 0.00 0.00 0.00 0.00 0.00 0.00 0.00 0.00 0.00
0.00 0.00 0.00 0.00 0.00 0.00 0.00 0.00 0.00 0.00 0.00 0.00 0.00 0.00 0.00 0.00 0.00 0.00 0.00 0.00 0.00 0.00 0.00 0.00 0.00 0.00 0.00 0.00 0.00 0.00 0.00 0.00 0.00 0.00 0.00 0.00 0.00 0.00 0.00 0.00 0.00 0.00
0.00 0.00 0.00 0.00 0.00 0.00 0.00 0.00 0.00 0.00 0.00 0.00 0.00 0.00 0.00 0.00 0.00 0.00 0.00 0.00 0.00 0.00 0.00 0.00 0.00 0.00 0.00 0.00 0.00 0.00 0.00 0.00 0.00 0.00 0.00 0.00 0.00 0.00 0.00 0.00 0.00 0.00
0.00 0.00 0.00 0.00 0.00 0.00 0.00 0.00 0.00 0.00 0.00 0.00 0.00 0.00 0.00 0.00 0.00 0.00 0.00 0.00 0.00 0.00 0.00 0.00 0.00 0.00 0.00 0.00 0.00 0.00 0.00 0.00 0.00 0.00 0.00 0.00 0.00 0.00 0.00 0.00 0.00 0.00
0.00 0.00 0.00 0.00 0.00 0.00 0.00 0.00 0.00 0.00 0.00 0.00 0.00 0.00 0.00 0.00 0.00 0.00 0.00 0.00 0.00 0.00 0.00 0.00 0.00 0.00 0.00 0.00 0.00 0.00 0.00 0.00 0.00 0.00 0.00 0.00 0.00 0.00 0.00 0.00 0.00 0.00
0.00 0.00 0.00 0.00 0.00 0.00 0.00 0.00 0.00 0.00 0.00 0.00 0.00 0.00 0.00 0.00 0.00 0.00 0.00 0.00 0.00 0.00 0.00 0.00 0.00 0.00 0.00 0.00 0.00 0.00 0.00 0.00 0.00 0.00 0.00 0.00 0.00 0.00 0.00 0.00 0.00 0.00
0.00 0.00 0.00 0.00 0.00 0.00 0.00 0.00 0.00 0.00 0.00 0.00 0.00 0.00 0.00 0.00 0.00 0.00 0.00 0.00 0.00 0.00 0.00 0.00 0.00 0.00 0.00 0.00 0.00 0.00 0.00 0.00 0.00 0.00 0.00 0.00 0.00 0.00 0.00 0.00 0.00 0.00
0.00 0.00 0.00 0.00 0.00 0.00 0.00 0.00 0.00 0.00 0.00 0.00 0.00 0.00 0.00 0.00 0.00 0.00 0.00 0.00 0.00 0.00 0.00 0.00 0.00 0.00 0.00 0.00 0.00 0.00 0.00 0.00 0.00 0.00 0.00 0.00 0.00 0.00 0.00 0.00 0.00 0.00
0.00 0.00 0.00 0.00 0.00 0.00 0.00 0.00 0.00 0.00 0.00 0.00 0.00 0.00 0.00 0.00 0.00 0.00 0.00 0.00 0.00 0.00 0.00 0.00 0.00 0.00 0.00 0.00 0.00 0.00 0.00 0.00 0.00 0.00 0.00 0.00 0.00 0.00 0.00 0.00 0.00 0.00
0.00 0.00 0.00 0.00 0.00 0.00 0.00 0.00 0.00 0.00 0.00 0.00 0.00 0.00 0.00 0.00 0.00 0.00 0.00 0.00 0.00 0.00 0.00 0.00 0.00 0.00 0.00 0.00 0.00 0.00 0.00 0.00 0.00 0.00 0.00 0.00 0.00 0.00 0.00 0.00 0.00 0.00
0.03 0.00 0.00 0.00 0.00 0.00 0.00 0.00 0.00 0.00 0.00 0.00 0.00 0.00 0.00 0.00 0.00 0.00 0.00 0.00 0.00 0.00 0.00 0.00 0.00 0.00 0.00 0.00 0.00 0.00 0.00 0.00 0.00 0.00 0.00 0.00 0.00 0.00 0.00 0.00 0.00 0.00
0.08 0.07 0.00 0.00 0.00 0.00 0.00 0.00 0.00 0.00 0.00 0.00 0.00 0.00 0.00 0.00 0.00 0.00 0.00 0.00 0.00 0.00 0.00 0.00 0.00 0.00 0.00 0.00 0.00 0.00 0.00 0.00 0.00 0.00 0.00 0.00 0.00 0.00 0.00 0.00 0.00 0.00
0.17 0.23 0.11 0.00 0.00 0.00 0.00 0.00 0.00 0.00 0.00 0.00 0.00 0.00 0.00 0.00 0.00 0.00 0.00 0.00 0.00 0.00 0.00 0.00 0.00 0.00 0.00 0.00 0.00 0.00 0.00 0.00 0.00 0.00 0.00 0.00 0.00 0.00 0.00 0.00 0.00 0.00
0.14 0.14 0.17 0.08 0.00 0.00 0.00 0.00 0.00 0.00 0.00 0.00 0.00 0.00 0.00 0.00 0.00 0.00 0.00 0.00 0.00 0.00 0.00 0.00 0.00 0.00 0.00 0.00 0.00 0.00 0.00 0.00 0.00 0.00 0.00 0.00 0.00 0.00 0.00 0.00 0.00 0.00
0.19 0.14 0.13 0.10 0.05 0.00 0.00 0.00 0.00 0.00 0.00 0.00 0.00 0.00 0.00 0.00 0.00 0.00 0.00 0.00 0.00 0.00 0.00 0.00 0.00 0.00 0.00 0.00 0.00 0.00 0.00 0.00 0.00 0.00 0.00 0.00 0.00 0.00 0.00 0.00 0.00 0.00
0.20 0.41 0.23 0.18 0.07 0.00 0.00 0.00 0.00 0.00 0.00 0.00 0.00 0.00 0.00 0.00 0.00 0.00 0.00 0.00 0.00 0.00 0.00 0.00 0.00 0.00 0.00 0.00 0.00 0.00 0.00 0.00 0.00 0.00 0.00 0.00 0.00 0.00 0.00 0.00 0.00 0.00
0.18 0.13 0.25 0.19 0.07 0.00 0.00 0.00 0.00 0.00 0.00 0.00 0.00 0.00 0.00 0.00 0.00 0.00 0.00 0.00 0.00 0.00 0.00 0.00 0.00 0.00 0.00 0.00 0.00 0.00 0.00 0.00 0.00 0.00 0.00 0.00 0.00 0.00 0.00 0.00 0.00 0.00
0.02 0.02 0.12 0.08 0.06 0.00 0.00 0.00 0.00 0.00 0.00 0.00 0.00 0.00 0.00 0.00 0.00 0.00 0.00 0.00 0.00 0.00 0.00 0.00 0.00 0.00 0.00 0.00 0.00 0.00 0.00 0.00 0.00 0.00 0.00 0.00 0.00 0.00 0.00 0.00 0.00 0.00
0.01 0.01 0.00 0.00 0.00 0.00 0.00 0.00 0.00 0.00 0.00 0.00 0.00 0.00 0.00 0.00 0.00 0.00 0.00 0.00 0.00 0.00 0.00 0.00 0.00 0.00 0.00 0.00 0.00 0.00 0.00 0.00 0.00 0.00 0.00 0.00 0.00 0.00 0.00 0.00 0.00 0.00
0.00 0.00 0.00 0.00 0.00 0.00 0.00 0.00 0.00 0.00 0.00 0.00 0.00 0.00 0.00 0.00 0.00 0.00 0.00 0.00 0.00 0.00 0.00 0.00 0.00 0.00 0.00 0.00 0.00 0.00 0.00 0.00 0.00 0.00 0.00 0.00 0.00 0.00 0.00 0.00 0.00 0.00
0.00 0.00 0.00 0.00 0.00 0.00 0.00 0.00 0.00 0.00 0.00 0.00 0.00 0.00 0.00 0.00 0.00 0.00 0.00 0.00 0.00 0.00 0.00 0.00 0.00 0.00 0.00 0.00 0.00 0.00 0.00 0.00 0.00 0.00 0.00 0.00 0.00 0.00 0.00 0.00 0.00 0.00
0.00 0.00 0.02 0.09 0.00 0.00 0.00 0.00 0.00 0.00 0.00 0.02 0.00 0.00 0.00 0.00 0.00 0.00 0.00 0.00 0.00 0.00 0.00 0.00 0.00 0.00 0.00 0.00 0.00 0.00 0.00 0.00 0.00 0.00 0.00 0.00 0.00 0.00 0.00 0.00 0.00 0.00
0.00 0.00 0.00 0.00 0.09 0.23 0.22 0.20 0.25 0.14 0.12 0.13 0.08 0.11 0.06 0.00 0.00 0.00 0.00 0.00 0.00 0.00 0.00 0.00 0.00 0.00 0.00 0.00 0.00 0.00 0.00 0.00 0.00 0.00 0.00 0.00 0.00 0.00 0.00 0.00 0.00 0.00
0.00 0.00 0.00 0.00 0.00 0.00 0.03 0.21 0.27 0.19 0.33 0.20 0.35 0.30 0.22 0.29 0.17 0.05 0.00 0.00 0.00 0.00 0.00 0.00 0.00 0.00 0.00 0.00 0.00 0.00 0.00 0.00 0.00 0.00 0.00 0.00 0.00 0.00 0.00 0.00 0.00 0.00
0.00 0.00 0.00 0.02 0.00 0.00 0.00 0.03 0.14 0.26 0.31 0.30 0.36 0.34 0.43 0.40 0.43 0.21 0.06 0.00 0.00 0.00 0.00 0.00 0.00 0.00 0.00 0.00 0.00 0.00 0.00 0.00 0.00 0.00 0.00 0.00 0.00 0.00 0.00 0.00 0.00 0.00
0.00 0.00 0.00 0.00 0.00 0.00 0.00 0.00 0.00 0.10 0.19 0.12 0.19 0.28 0.23 0.14 0.52 0.53 0.42 0.20 0.25 0.03 0.01 0.00 0.00 0.00 0.00 0.00 0.00 0.00 0.00 0.00 0.00 0.01 0.00 0.00 0.00 0.00 0.00 0.00 0.00 0.00
MSLP
1008.72 1008.92 1009.16 1009.48 1009.64 1009.76 1010.08 1010.52 1010.76 1011.04 1011.16 1011.44 1011.88 1011.92 1011.92 1012.04 1012.48 1012.72 1012.92 1013.28 1013.44 1013.68 1013.88 1014.12 1014.40 1014.68 1014.88 1015.08 1015.24 1015.48 1015.68 1015.84 1016.00 1016.12 1016.36 1016.64 1016.88 1017.12 1017.36 1017.52 1017.68 1017.76
1008.28 1008.48 1008.64 1008.92 1009.16 1009.40 1009.64 1009.80 1010.12 1010.36 1010.56 1010.68 1010.80 1011.12 1011.44 1011.84 1012.00 1012.20 1012.52 1012.84 1013.08 1013.24 1013.40 1013.72 1013.96 1014.20 1014.48 1014.72 1014.92 1015.20 1015.40 1015.56 1015.76 1015.68 1016.08 1016.32 1016.48 1016.76 1016.92 1017.08 1017.32 1017.44
1007.72 1008.04 1008.32 1008.60 1008.84 1009.00 1009.12 1009.12 1009.40 1009.72 1010.00 1010.04 1010.20 1010.60 1011.04 1011.28 1011.64 1011.80 1012.04 1012.36 1012.68 1012.88 1013.08 1013.24 1013.56 1013.80 1014.04 1014.28 1014.52 1014.80 1015.00 1015.24 1015.44 1015.44 1015.68 1015.92 1016.12 1016.36 1016.44 1016.72 1017.00 1017.16
1007.20 1007.40 1007.68 1007.92 1008.24 1008.48 1008.52 1008.84 1009.08 1009.36 1009.64 1010.08 1010.16 1010.00 1010.28 1010.72 1011.12 1011.48 1011.68 1011.92 1012.24 1012.44 1012.64 1012.92 1013.12 1013.40 1013.64 1013.88 1014.16 1014.40 1014.52 1014.76 1014.88 1015.12 1015.40 1015.56 1015.72 1015.88 1016.16 1016.36 1016.60 1016.84
1006.64 1007.00 1007.20 1007.48 1007.76 1008.04 1008.32 1008.56 1008.68 1008.84 1009.12 1009.20 1009.40 1009.72 1010.04 1010.40 1010.80 1011.12 1011.36 1011.60 1011.76 1012.04 1012.28 1012.48 1012.72 1012.96 1013.20 1013.52 1013.76 1014.08 1014.24 1014.44 1014.60 1014.84 1015.12 1015.28 1015.32 1015.56 1015.76 1016.08 1016.36 1016.60
1006.00 1006.20 1006.44 1006.84 1007.16 1007.56 1007.96 1008.12 1008.12 1008.28 1008.52 1008.92 1009.08 1009.16 1009.32 1009.68 1010.24 1010.64 1010.96 1011.24 1011.36 1011.56 1011.80 1012.04 1012.32 1012.52 1012.80 1013.08 1013.44 1013.60 1013.80 1014.12 1014.28 1014.56 1014.80 1014.96 1015.08 1015.24 1015.44 1015.68 1016.00 1016.24
1005.40 1005.72 1006.16 1006.40 1006.76 1007.00 1007.36 1007.52 1007.64 1007.76 1008.00 1008.16 1008.52 1008.84 1008.88 1009.28 1009.68 1010.04 1010.40 1010.72 1011.04 1011.28 1011.36 1011.52 1011.76 1012.12 1012.36 1012.64 1012.96 1013.24 1013.40 1013.60 1013.92 1014.20 1014.44 1014.60 1014.80 1015.04 1015.12 1015.32 1015.56 1015.76
1004.76 1005.00 1005.36 1005.72 1006.08 1006.36 1006.68 1006.96 1007.24 1007.40 1007.52 1007.84 1008.20 1008.20 1008.36 1008.60 1008.92 1009.40 1009.88 1010.32 1010.72 1010.88 1011.04 1011.12 1011.32 1011.56 1011.84 1012.16 1012.48 1012.76 1013.04 1013.24 1013.48 1013.76 1014.04 1014.24 1014.44 1014.68 1014.80 1014.92 1015.16 1015.44
1004.52 1004.76 1004.96 1005.32 1005.68 1005.96 1006.24 1006.48 1006.72 1006.96 1007.16 1007.52 1007.64 1007.72 1007.84 1008.00 1008.36 1008.80 1009.28 1009.76 1010.16 1010.44 1010.68 1010.88 1010.92 1011.08 1011.32 1011.60 1011.88 1012.16 1012.48 1012.76 1012.92 1013.28 1013.56 1013.84 1014.04 1014.12 1014.32 1014.56 1014.92 1015.08
1005.16 1004.80 1004.84 1005.08 1005.40 1005.48 1005.76 1006.00 1006.32 1006.60 1006.76 1007.08 1007.20 1007.24 1007.48 1007.60 1007.84 1008.28 1008.80 1009.32 1009.72 1010.04 1010.28 1010.48 1010.60 1010.64 1010.84 1011.04 1011.28 1011.64 1011.96 1012.24 1012.48 1012.72 1012.96 1013.20 1013.40 1013.64 1013.92 1014.20 1014.40 1014.72
1005.68 1005.20 1005.00 1004.92 1005.00 1005.08 1005.36 1005.64 1005.92 1006.16 1006.40 1006.64 1006.88 1007.04 1007.08 1007.28 1007.60 1007.84 1008.36 1008.80 1009.20 1009.44 1009.68 1009.88 1010.00 1010.16 1010.44 1010.68 1010.84 1011.04 1011.36 1011.72 1012.00 1012.24 1012.44 1012.64 1012.84 1013.08 1013.32 1013.64 1013.96 1014.12
1006.16 1006.00 1005.24 1004.88 1004.76 1004.88 1005.00 1005.20 1005.40 1005.64 1005.84 1006.04 1006.20 1006.44 1006.60 1006.84 1007.16 1007.44 1007.72 1008.12 1008.36 1008.64 1008.96 1009.24 1009.48 1009.80 1009.96 1010.08 1010.40 1010.72 1011.00 1011.24 1011.48 1011.72 1011.92 1012.16 1012.40 1012.64 1012.84 1013.12 1013.36 1013.64
1005.28 1006.20 1006.08 1004.84 1004.56 1004.56 1004.64 1004.88 1005.12 1005.28 1005.44 1005.60 1005.60 1005.84 1006.20 1006.48 1006.64 1006.96 1007.20 1007.48 1007.80 1008.12 1008.52 1008.76 1009.04 1009.36 1009.60 1009.80 1010.00 1010.24 1010.48 1010.80 1011.04 1011.28 1011.48 1011.76 1011.92 1012.16 1012.40 1012.68 1012.92 1013.20
1005.52 1005.16 1005.64 1004.92 1004.08 1003.88 1004.08 1004.32 1004.60 1004.80 1004.96 1005.00 1005.20 1005.48 1005.72 1005.92 1006.16 1006.40 1006.60 1006.88 1007.16 1007.52 1007.80 1008.16 1008.64 1009.04 1009.24 1009.36 1009.48 1009.64 1009.96 1010.20 1010.48 1010.76 1011.04 1011.28 1011.52 1011.80 1012.00 1012.24 1012.48 1012.72
1005.12 1005.40 1005.36 1005.04 1004.24 1003.76 1003.80 1003.96 1004.08 1004.24 1004.40 1004.56 1004.72 1004.92 1005.08 1005.28 1005.56 1005.92 1006.28 1006.56 1006.72 1006.96 1007.24 1007.64 1008.08 1008.36 1008.56 1008.72 1008.92 1009.16 1009.32 1009.64 1009.96 1010.28 1010.56 1010.88 1011.20 1011.48 1011.68 1011.88 1012.08 1012.28
1004.24 1005.28 1005.40 1004.64 1003.80 1003.48 1003.52 1003.56 1003.72 1003.84 1004.04 1004.20 1004.28 1004.36 1004.52 1004.76 1005.16 1005.48 1005.84 1006.12 1006.36 1006.48 1006.68 1007.04 1007.36 1007.52 1007.64 1007.88 1008.12 1008.44 1008.80 1009.16 1009.56 1009.84 1010.08 1010.36 1010.76 1011.16 1011.44 1011.56 1011.64 1011.84
1003.88 1004.40 1004.92 1004.60 1003.68 1003.04 1003.04 1003.24 1003.36 1003.44 1003.64 1003.80 1003.88 1004.00 1004.16 1004.36 1004.68 1005.08 1005.36 1005.52 1005.76 1006.00 1006.24 1006.36 1006.48 1006.56 1006.80 1007.32 1007.76 1007.96 1008.24 1008.68 1009.04 1009.32 1009.60 1009.92 1010.24 1010.60 1010.96 1011.24 1011.44 1011.56
1003.32 1003.64 1003.92 1003.56 1002.72 1002.48 1002.64 1002.76 1002.88 1003.08 1003.28 1003.36 1003.48 1003.64 1003.72 1003.92 1004.32 1004.56 1004.68 1004.92 1005.20 1005.44 1005.64 1005.64 1005.68 1005.68 1006.16 1006.76 1007.28 1007.60 1007.80 1008.04 1008.52 1008.96 1009.28 1009.48 1009.68 1010.04 1010.36 1010.80 1011.12 1011.40
1002.60 1002.80 1002.64 1002.44 1002.28 1002.28 1002.32 1002.44 1002.56 1002.72 1002.84 1002.96 1003.12 1003.08 1003.28 1003.64 1003.76 1003.92 1004.12 1004.28 1004.60 1004.92 1005.04 1004.96 1004.96 1004.96 1005.52 1006.08 1006.60 1007.08 1007.40 1007.64 1008.00 1008.36 1008.80 1009.04 1009.24 1009.52 1009.92 1010.32 1010.76 1011.12
1002.00 1002.12 1002.24 1002.20 1002.12 1002.12 1002.12 1002.24 1002.36 1002.36 1002.28 1002.28 1002.44 1002.60 1002.84 1003.00 1003.16 1003.36 1003.48 1003.68 1003.88 1004.16 1004.40 1004.48 1004.36 1004.28 1004.88 1005.40 1005.96 1006.48 1006.96 1007.40 1007.40 1007.88 1008.24 1008.56 1008.80 1009.04 1009.36 1009.80 1010.16 1010.60
1001.44 1001.68 1001.84 1001.84 1001.80 1001.88 1002.04 1002.16 1002.20 1002.12 1002.04 1002.00 1002.08 1002.16 1002.28 1002.44 1002.60 1002.80 1002.84 1002.96 1003.08 1003.36 1003.76 1003.92 1003.76 1003.68 1004.16 1004.68 1005.24 1005.88 1006.52 1007.12 1007.08 1007.44 1007.80 1008.04 1008.24 1008.44 1008.64 1009.08 1009.60 1010.00
1001.04 1001.16 1001.32 1001.44 1001.52 1001.52 1001.64 1001.76 1001.84 1002.08 1002.36 1002.36 1002.08 1001.72 1001.56 1001.64 1001.72 1001.80 1002.00 1002.20 1002.32 1002.72 1003.08 1003.28 1003.20 1003.24 1003.56 1004.04 1004.64 1005.40 1006.24 1006.92 1006.88 1007.04 1007.28 1007.56 1007.84 1008.00 1008.20 1008.52 1009.04 1009.48
1000.60 1000.80 1000.92 1001.00 1001.12 1001.28 1001.36 1001.32 1001.36 1001.36 1001.60 1002.12 1003.08 1003.40 1002.60 1001.68 1001.28 1001.32 1001.32 1001.56 1001.84 1002.04 1002.32 1002.60 1002.72 1002.76 1003.04 1003.44 1004.16 1004.96 1006.04 1006.40 1006.48 1006.60 1006.84 1007.12 1007.28 1007.52 1007.84 1008.16 1008.52 1008.92
999.88 1000.16 1000.40 1000.52 1000.72 1000.88 1000.92 1000.96 1001.00 1000.96 1000.88 1001.08 1001.60 1002.24 1003.36 1003.44 1002.84 1001.68 1000.92 1000.84 1001.12 1001.36 1001.56 1002.04 1002.16 1002.20 1002.64 1003.12 1003.80 1004.72 1005.16 1005.60 1005.92 1006.24 1006.48 1006.68 1006.92 1007.12 1007.36 1007.60 1007.84 1008.28
999.48 999.64 999.84 1000.00 1000.16 1000.20 1000.24 1000.40 1000.52 1000.60 1000.52 1000.68 1000.92 1001.08 1001.20 1001.72 1002.88 1003.32 1002.44 1001.24 1000.68 1000.76 1001.04 1001.52 1001.72 1001.88 1002.36 1002.92 1003.64 1004.28 1004.76 1004.96 1005.36 1005.76 1006.12 1006.24 1006.52 1006.80 1006.96 1007.20 1007.56 1007.96
999.20 999.28 999.40 999.60 999.68 999.72 999.72 999.80 999.80 1000.00 1000.20 1000.28 1000.32 1000.40 1000.60 1000.68 1000.76 1001.48 1002.48 1002.64 1002.32 1001.56 1000.96 1001.08 1001.40 1001.52 1002.04 1002.52 1003.16 1003.84 1004.20 1004.40 1004.80 1005.44 1005.76 1005.84 1006.08 1006.40 1006.88 1007.12 1007.32 1007.72
Thickness
5722 5723 5725 5727 5728 5729 5728 5728 5727 5727 5727 5725 5724 5725 5728 5727 5726 5725 5724 5722 5721 5720 5718 5716 5713 5710 5709 5707 5706 5705 5703 5701 5699 5697 5693 5690 5687 5684 5681 5679 5677 5674
5722 5722 5723 5725 5726 5726 5727 5728 5728 5728 5729 5729 5728 5727 5728 5726 5726 5726 5724 5722 5721 5720 5719 5716 5714 5712 5709 5708 5706 5704 5702 5701 5700 5698 5695 5690 5688 5685 5682 5680 5677 5674
5722 5721 5722 5724 5725 5725 5727 5728 5728 5728 5729 5729 5728 5728 5728 5726 5726 5726 5725 5723 5721 5720 5718 5716 5714 5712 5711 5709 5706 5704 5703 5701 5700 5699 5696 5692 5689 5686 5683 5681 5677 5675
5720 5721 5721 5723 5724 5725 5725 5726 5725 5726 5726 5726 5728 5728 5728 5727 5724 5724 5723 5722 5721 5719 5718 5716 5715 5713 5711 5709 5707 5705 5704 5702 5700 5699 5695 5693 5691 5687 5684 5682 5678 5676
5720 5720 5721 5722 5722 5722 5721 5721 5723 5724 5725 5725 5727 5727 5727 5726 5724 5723 5722 5721 5720 5719 5718 5716 5715 5713 5711 5709 5708 5706 5704 5702 5701 5698 5695 5693 5691 5688 5685 5683 5679 5676
5718 5718 5720 5720 5720 5719 5719 5720 5722 5724 5724 5725 5725 5725 5726 5726 5724 5722 5721 5720 5720 5719 5718 5717 5715 5713 5711 5709 5708 5706 5705 5703 5700 5698 5696 5693 5691 5689 5686 5683 5680 5677
5716 5717 5717 5718 5718 5718 5718 5719 5721 5722 5723 5723 5723 5724 5725 5725 5725 5724 5722 5719 5718 5718 5717 5717 5716 5714 5712 5710 5708 5707 5705 5703 5701 5698 5696 5694 5692 5689 5687 5684 5681 5678
5714 5715 5716 5716 5716 5717 5718 5718 5718 5720 5721 5720 5720 5723 5725 5726 5726 5724 5721 5719 5717 5716 5716 5716 5716 5714 5712 5710 5709 5707 5706 5704 5702 5699 5696 5694 5692 5690 5687 5685 5682 5679
5706 5709 5710 5712 5712 5713 5715 5716 5716 5717 5717 5717 5719 5721 5724 5725 5726 5724 5721 5719 5717 5715 5715 5714 5714 5714 5713 5711 5710 5708 5706 5705 5703 5700 5697 5695 5694 5691 5688 5685 5682 5679
5692 5700 5703 5705 5707 5710 5711 5712 5713 5713 5714 5714 5716 5718 5721 5722 5723 5723 5720 5717 5715 5715 5714 5714 5714 5714 5713 5712 5711 5710 5708 5706 5704 5702 5699 5697 5695 5693 5690 5686 5683 5680
5680 5687 5694 5699 5703 5705 5708 5708 5710 5711 5711 5712 5713 5715 5718 5719 5720 5720 5718 5716 5715 5716 5715 5714 5714 5713 5711 5711 5710 5709 5708 5706 5704 5702 5700 5698 5696 5694 5691 5688 5685 5682
5676 5676 5682 5692 5697 5700 5703 5705 5707 5708 5709 5710 5712 5714 5715 5716 5718 5718 5717 5716 5717 5717 5715 5715 5713 5711 5710 5710 5710 5709 5707 5705 5704 5703 5702 5699 5697 5696 5693 5690 5687 5684
5673 5672 5674 5683 5691 5695 5699 5701 5703 5705 5707 5709 5712 5712 5713 5714 5716 5717 5717 5717 5718 5716 5715 5714 5712 5709 5708 5709 5709 5708 5707 5705 5704 5703 5702 5700 5698 5696 5694 5691 5688 5685
5669 5671 5670 5676 5684 5691 5694 5696 5699 5701 5704 5707 5709 5710 5711 5713 5715 5715 5716 5717 5717 5715 5714 5713 5710 5707 5707 5707 5707 5708 5707 5705 5704 5703 5702 5700 5698 5696 5694 5691 5689 5686
5665 5664 5664 5666 5675 5683 5687 5690 5695 5698 5700 5703 5705 5708 5711 5712 5713 5713 5713 5714 5715 5715 5714 5712 5710 5708 5708 5708 5708 5708 5706 5706 5704 5703 5701 5700 5698 5695 5693 5691 5689 5687
5663 5659 5656 5658 5667 5676 5681 5686 5690 5693 5696 5699 5702 5706 5709 5710 5710 5710 5710 5711 5712 5713 5712 5712 5711 5712 5712 5711 5709 5708 5706 5704 5703 5702 5701 5700 5697 5694 5692 5691 5690 5688
5658 5655 5652 5653 5662 5672 5678 5682 5686 5689 5693 5696 5699 5703 5707 5708 5707 5706 5707 5710 5710 5710 5710 5711 5713 5715 5715 5711 5708 5707 5705 5703 5701 5701 5700 5699 5697 5695 5692 5690 5689 5687
5653 5653 5654 5656 5663 5671 5676 5680 5683 5686 5689 5693 5696 5700 5703 5704 5703 5704 5707 5708 5708 5708 5708 5711 5715 5718 5716 5711 5707 5705 5704 5702 5701 5699 5698 5698 5697 5695 5693 5690 5687 5685
5650 5652 5655 5658 5663 5668 5673 5678 5680 5683 5687 5690 5695 5698 5700 5700 5701 5703 5706 5706 5706 5706 5707 5710 5715 5718 5716 5712 5708 5705 5702 5701 5700 5698 5697 5696 5696 5695 5692 5689 5686 5684
5648 5650 5653 5657 5661 5665 5670 5673 5676 5680 5685 5688 5691 5694 5696 5697 5700 5702 5704 5705 5706 5707 5706 5708 5713 5718 5716 5711 5708 5704 5701 5699 5698 5697 5695 5695 5695 5695 5692 5690 5686 5684
5646 5648 5651 5655 5660 5663 5665 5668 5672 5677 5681 5685 5688 5691 5693 5696 5699 5701 5703 5706 5707 5706 5705 5707 5712 5716 5715 5711 5709 5704 5699 5695 5695 5695 5694 5694 5694 5694 5693 5691 5687 5684
5644 5647 5650 5653 5657 5659 5661 5664 5668 5671 5674 5675 5678 5683 5689 5694 5697 5700 5703 5705 5706 5706 5705 5706 5710 5713 5713 5711 5708 5702 5695 5691 5692 5693 5692 5693 5693 5693 5692 5690 5687 5684
5641 5645 5647 5649 5651 5653 5656 5660 5664 5668 5671 5671 5667 5667 5673 5682 5690 5697 5701 5703 5704 5705 5705 5705 5708 5710 5711 5710 5706 5699 5693 5689 5689 5691 5691 5691 5692 5692 5691 5689 5687 5684
5639 5641 5644 5646 5648 5649 5652 5656 5659 5664 5669 5671 5668 5665 5664 5667 5674 5683 5693 5699 5702 5703 5704 5703 5705 5707 5707 5705 5701 5695 5691 5690 5689 5688 5688 5689 5690 5690 5689 5689 5687 5684
5635 5637 5639 5642 5644 5647 5650 5653 5656 5660 5664 5666 5668 5670 5669 5668 5666 5667 5674 5685 5693 5697 5699 5698 5700 5703 5701 5698 5696 5692 5690 5690 5687 5685 5685 5687 5687 5687 5686 5686 5685 5682
5629 5632 5634 5637 5639 5644 5648 5651 5654 5657 5660 5662 5664 5667 5669 5671 5671 5668 5666 5669 5674 5682 5688 5692 5694 5697 5696 5694 5692 5688 5687 5688 5685 5682 5683 5685 5684 5683 5683 5682 5681 5679